Weather History for Claresholm, AB

Change the Weather History Date:

Sunday, October 27, 2013

  Actual Average Record
Temperature  
Mean Temperature 32 °F -  
Max Temperature 42 °F - - ()
Min Temperature 22 °F - - ()
Degree Days  
Heating Degree Days 32    
Moisture  
Dew Point 28 °F    
Average Humidity 81    
Maximum Humidity 100    
Minimum Humidity 25    
Precipitation  
Precipitation 0.47 in - - ()
Sea Level Pressure  
Sea Level Pressure 30.21 in    
Wind  
Wind Speed 8 mph ()    
Max Wind Speed 20 mph    
Max Gust Speed 32 mph    
T = Trace of Precipitation, MM = Missing Value Source: Averaged Metar Reports

Daily Weather History Graph

Daily Weather History Graph

Search for Another Location

Airport:

Trip Planner

Search our weather history database for the weather conditions in past years. The results will help you decide how hot, cold, wet, or windy it might be!

Date:

Astronomy

Oct. 27, 2013 Rise Set
Actual Time 8:16 AM MDT 6:19 PM MDT
Civil Twilight 7:42 AM MDT 6:52 PM MDT
Nautical Twilight 7:05 AM MDT 7:30 PM MDT
Astronomical Twilight 6:27 AM MDT 8:08 PM MDT
Moon 12:38 AM MDT (10/27) 3:06 PM MDT (10/27)
Length of Visible Light 11h 09m
Length of Day
10h 02m
Last Quarter, 43% of the Moon is Illuminated
Oct 27
Last Quarter
Nov 3
New
Nov 9
First Quarter
Nov 17
Full
Nov 25
Last Quarter

Hourly Weather History & Observations

Time (MDT) Temp. Windchill Dew Point Humidity Pressure Visibility Wind Dir Wind Speed Gust Speed Precip Events Conditions
12:00 AM 50 °F - 25 °F 25% 29.87 in - NNE 2.3 mph - -  
12:00 AM 49.6 °F - 25.0 °F 38% 29.87 in - NNE 2.3 mph - N/A   Unknown
1:00 AM 46.6 °F - 22.6 °F 39% 29.88 in - NNE 8.1 mph - N/A   Unknown
2:00 AM 40.5 °F 33.6 °F 24.8 °F 54% 29.91 in - NNW 11.5 mph - 0.47 in   Unknown
3:00 AM 43.0 °F 36.8 °F 26.6 °F 52% 29.92 in - North 11.5 mph - N/A   Unknown
4:00 AM 41.4 °F 34.7 °F 28.6 °F 60% 29.94 in - North 11.5 mph - N/A   Unknown
5:00 AM 42.3 °F 36.8 °F 29.1 °F 60% 29.95 in - North 9.2 mph - N/A   Unknown
6:00 AM 43 °F - 29 °F 45% 29.96 in - North 5.8 mph - -  
6:00 AM 42.6 °F 39.0 °F 28.9 °F 58% 29.96 in - North 5.8 mph - N/A   Unknown
7:00 AM 39.7 °F 37.6 °F 33.1 °F 77% 30.00 in - WNW 3.5 mph - N/A   Unknown
8:00 AM 35.8 °F 30.9 °F 33.3 °F 91% 30.03 in - NW 5.8 mph - 0.10 in   Unknown
9:00 AM 31.5 °F 25.8 °F 31.8 °F 100% 30.07 in - NNW 5.8 mph - 0.07 in   Unknown
10:00 AM 31.5 °F 25.8 °F 31.6 °F 100% 30.10 in - North 5.8 mph - 0.05 in   Unknown
11:00 AM 31.3 °F 22.1 °F 31.5 °F 100% 30.17 in - North 11.5 mph - 0.05 in   Unknown
12:00 PM 31.1 °F 19.3 °F 31.1 °F 100% 30.24 in - NE 18.4 mph 27.6 mph 0.06 in   Unknown
1:00 PM 30.4 °F 19.1 °F 30.4 °F 100% 30.31 in - North 16.1 mph 23.0 mph 0.02 in   Unknown
2:00 PM 29.3 °F 16.6 °F 29.3 °F 100% 30.35 in - North 19.6 mph 27.6 mph 0.04 in   Unknown
3:00 PM 29.5 °F 16.8 °F 29.3 °F 99% 30.38 in - North 19.6 mph 32.2 mph 0.02 in   Unknown
4:00 PM 28.4 °F 15.4 °F 28.2 °F 99% 30.42 in - North 19.6 mph 28.8 mph 0.02 in   Unknown
5:00 PM 28.0 °F 16.5 °F 27.9 °F 99% 30.46 in - North 15.0 mph 25.3 mph 0.01 in   Unknown
6:00 PM 27 °F - 27 °F 99% 30.49 in - NNE 11.5 mph - -  
6:00 PM 27.1 °F 16.9 °F 26.8 °F 99% 30.49 in - NNE 11.5 mph 18.4 mph N/A   Unknown
7:00 PM 26.2 °F 15.2 °F 26.1 °F 99% 30.54 in - NNE 12.7 mph - 0.02 in   Unknown
8:00 PM 25.7 °F 14.6 °F 25.3 °F 99% 30.57 in - North 12.7 mph 18.4 mph 0.02 in   Unknown
9:00 PM 25.0 °F 13.1 °F 24.6 °F 99% 30.59 in - NNE 13.8 mph 19.6 mph 0.01 in   Unknown
10:00 PM 23.5 °F 10.8 °F 23.0 °F 98% 30.61 in - NNE 15.0 mph 21.9 mph 0.02 in   Unknown
11:00 PM 22.5 °F 12.4 °F 21.9 °F 98% 30.63 in - NNE 9.2 mph - N/A   Unknown